Location: La Trinit�
(48.1620°N, 3.4512°W)
Time: 09:41:46
(UTC+00:00)

ALOS 2 - Pass Details

Date: 08 May 2021
Orbit: 630 x 632 km, 97.9° (Epoch: 12 June)

Event Time Altitude Azimuth Distance (km) Brightness Sun altitude
Exits shadow 23:15:49 54° 91° (E) 774 2.9 -23.4°
Maximum altitude 23:16:08 55° 72° (ENE) 760 2.9 -23.4°
Drops below altitude 10° 23:20:27 10° 354° (N) 2,026 6.3 -23.5°
Sets 23:22:41 0° 351° (N) 2,939 7.5 -23.6°
